START_TIME,STEP,MOV.,EG07,t_acc.,EG08,t_acc.,EG09,t_acc.,EB05,t_acc.,EBP05,t_acc.
1986-01-24 18:00:24.300 ,6,0,464.,1.2,5.,1.2,0.,1.2,,0.0,,0.0
1986-01-24 18:00:25.500 ,6,0,472.,1.2,6.,1.2,0.,1.2,,0.0,,0.0
1986-01-24 18:00:26.700 ,6,0,472.,1.2,7.,1.2,0.,1.2,,0.0,,0.0
1986-01-24 18:00:27.900 ,6,0,472.,1.2,10.,1.2,0.,1.2,,0.0,,0.0
1986-01-24 18:00:29.100 ,6,0,472.,1.2,8.,1.2,0.,1.2,,0.0,,0.0
1986-01-24 18:00:30.300 ,6,0,448.,1.2,8.,1.2,0.,1.2,,0.0,,0.0
1986-01-24 18:00:31.500 ,6,0,480.,1.2,8.,1.2,0.,1.2,,0.0,,0.0
1986-01-24 18:00:32.700 ,6,0,448.,1.2,4.,1.2,0.,1.2,,0.0,,0.0
1986-01-24 18:00:33.900 ,6,0,456.,1.2,6.,1.2,0.,1.2,,0.0,,0.0
1986-01-24 18:00:35.100 ,6,0,496.,1.2,13.,1.2,0.,1.2,,0.0,,0.0
1986-01-24 18:00:36.300 ,6,0,472.,1.2,7.,1.2,0.,1.2,,0.0,,0.0
1986-01-24 18:00:37.500 ,6,0,504.,1.2,3.,1.2,0.,1.2,,0.0,,0.0
1986-01-24 18:00:38.700 ,6,0,480.,1.2,5.,1.2,1.,1.2,,0.0,,0.0
1986-01-24 18:00:39.900 ,6,0,480.,1.2,5.,1.2,0.,1.2,,0.0,,0.0
1986-01-24 18:00:41.100 ,6,0,496.,1.2,7.,1.2,0.,1.2,,0.0,,0.0
1986-01-24 18:00:42.300 ,6,0,448.,1.2,5.,1.2,0.,1.2,,0.0,,0.0
1986-01-24 18:00:43.500 ,6,0,448.,1.2,2.,1.2,0.,1.2,,0.0,,0.0
1986-01-24 18:00:44.700 ,6,0,464.,1.2,11.,1.2,0.,1.2,,0.0,,0.0
1986-01-24 18:00:45.900 ,6,0,464.,1.2,7.,1.2,0.,1.2,,0.0,,0.0
1986-01-24 18:00:47.100 ,6,0,,0,,0,,0,,0,,0
1986-01-24 18:00:48.300 ,5,0,472.,1.2,5.,1.2,0.,1.2,,0.0,,0.0
1986-01-24 18:00:49.500 ,5,0,50.,1.2,0.,1.2,0.,1.2,,0.0,,0.0
1986-01-24 18:00:50.700 ,5,0,26.,1.2,1.,1.2,0.,1.2,,0.0,,0.0
1986-01-24 18:00:51.900 ,5,0,18.,1.2,0.,1.2,0.,1.2,,0.0,,0.0
1986-01-24 18:00:53.100 ,5,0,25.,1.2,1.,1.2,1.,1.2,,0.0,,0.0
1986-01-24 18:00:54.300 ,5,0,20.,1.2,2.,1.2,0.,1.2,,0.0,,0.0
1986-01-24 18:00:55.500 ,5,0,22.,1.2,0.,1.2,0.,1.2,,0.0,,0.0
1986-01-24 18:00:56.700 ,5,0,17.,1.2,2.,1.2,0.,1.2,,0.0,,0.0
1986-01-24 18:00:57.900 ,5,0,14.,1.2,0.,1.2,0.,1.2,,0.0,,0.0
1986-01-24 18:00:59.100 ,5,0,28.,1.2,2.,1.2,0.,1.2,,0.0,,0.0
1986-01-24 18:01:00.300 ,5,0,140.,1.2,1.,1.2,0.,1.2,,0.0,,0.0
1986-01-24 18:01:01.500 ,5,0,496.,1.2,4.,1.2,0.,1.2,,0.0,,0.0
1986-01-24 18:01:02.700 ,5,0,480.,1.2,11.,1.2,0.,1.2,,0.0,,0.0
1986-01-24 18:01:03.900 ,5,0,472.,1.2,8.,1.2,0.,1.2,,0.0,,0.0
1986-01-24 18:01:05.100 ,5,0,504.,1.2,7.,1.2,0.,1.2,,0.0,,0.0
1986-01-24 18:01:06.300 ,5,0,456.,1.2,6.,1.2,0.,1.2,,0.0,,0.0
1986-01-24 18:01:07.500 ,5,0,688.,1.2,15.,1.2,0.,1.2,,0.0,,0.0
1986-01-24 18:01:08.700 ,5,0,656.,1.2,7.,1.2,0.,1.2,,0.0,,0.0
1986-01-24 18:01:09.900 ,5,0,688.,1.2,3.,1.2,0.,1.2,,0.0,,0.0
1986-01-24 18:01:11.100 ,5,0,656.,1.2,5.,1.2,0.,1.2,,0.0,,0.0
1986-01-24 18:01:12.300 ,1,0,752.,1.2,13.,1.2,0.,1.2,,0.0,,0.0
1986-01-24 18:01:13.500 ,1,0,1184.,1.2,13.,1.2,0.,1.2,,0.0,,0.0
1986-01-24 18:01:14.700 ,1,0,1248.,1.2,8.,1.2,0.,1.2,,0.0,,0.0
1986-01-24 18:01:15.900 ,1,0,1152.,1.2,18.,1.2,0.,1.2,,0.0,,0.0
1986-01-24 18:01:17.100 ,1,0,1248.,1.2,11.,1.2,0.,1.2,,0.0,,0.0
1986-01-24 18:01:18.300 ,1,0,1216.,1.2,15.,1.2,0.,1.2,,0.0,,0.0
1986-01-24 18:01:19.500 ,1,0,1056.,1.2,9.,1.2,0.,1.2,,0.0,,0.0
1986-01-24 18:01:20.700 ,1,0,1056.,1.2,10.,1.2,0.,1.2,,0.0,,0.0
1986-01-24 18:01:21.900 ,1,0,1024.,1.2,7.,1.2,0.,1.2,,0.0,,0.0
1986-01-24 18:01:23.100 ,1,0,1088.,1.2,14.,1.2,0.,1.2,,0.0,,0.0
1986-01-24 18:01:24.300 ,1,0,1056.,1.2,10.,1.2,0.,1.2,,0.0,,0.0
1986-01-24 18:01:25.500 ,1,0,528.,1.2,5.,1.2,0.,1.2,,0.0,,0.0
1986-01-24 18:01:26.700 ,1,0,504.,1.2,7.,1.2,0.,1.2,,0.0,,0.0
1986-01-24 18:01:27.900 ,1,0,488.,1.2,8.,1.2,0.,1.2,,0.0,,0.0
1986-01-24 18:01:29.100 ,1,0,544.,1.2,7.,1.2,0.,1.2,,0.0,,0.0
1986-01-24 18:01:30.300 ,1,0,528.,1.2,10.,1.2,0.,1.2,,0.0,,0.0
1986-01-24 18:01:31.500 ,1,0,704.,1.2,8.,1.2,0.,1.2,,0.0,,0.0
1986-01-24 18:01:32.700 ,1,0,704.,1.2,9.,1.2,0.,1.2,,0.0,,0.0
1986-01-24 18:01:33.900 ,1,0,720.,1.2,9.,1.2,0.,1.2,,0.0,,0.0
1986-01-24 18:01:35.100 ,1,0,672.,1.2,8.,1.2,0.,1.2,,0.0,,0.0
1986-01-24 18:01:36.300 ,2,0,752.,1.2,8.,1.2,0.,1.2,,0.0,,0.0
1986-01-24 18:01:37.500 ,2,0,1248.,1.2,20.,1.2,0.,1.2,,0.0,,0.0
1986-01-24 18:01:38.700 ,2,0,1216.,1.2,14.,1.2,0.,1.2,,0.0,,0.0
1986-01-24 18:01:39.900 ,2,0,1248.,1.2,19.,1.2,0.,1.2,,0.0,,0.0
1986-01-24 18:01:41.100 ,2,0,1248.,1.2,15.,1.2,0.,1.2,,0.0,,0.0
1986-01-24 18:01:42.300 ,2,0,1248.,1.2,15.,1.2,0.,1.2,,0.0,,0.0
1986-01-24 18:01:43.500 ,2,0,1184.,1.2,11.,1.2,0.,1.2,,0.0,,0.0
1986-01-24 18:01:44.700 ,2,0,1216.,1.2,10.,1.2,0.,1.2,,0.0,,0.0
1986-01-24 18:01:45.900 ,2,0,1216.,1.2,10.,1.2,0.,1.2,,0.0,,0.0
1986-01-24 18:01:47.100 ,2,0,1280.,1.2,14.,1.2,0.,1.2,,0.0,,0.0
1986-01-24 18:01:48.300 ,2,0,1280.,1.2,8.,1.2,0.,1.2,,0.0,,0.0
1986-01-24 18:01:49.500 ,2,0,736.,1.2,14.,1.2,0.,1.2,,0.0,,0.0
1986-01-24 18:01:50.700 ,2,0,640.,1.2,10.,1.2,0.,1.2,,0.0,,0.0
1986-01-24 18:01:51.900 ,2,0,672.,1.2,7.,1.2,0.,1.2,,0.0,,0.0
1986-01-24 18:01:53.100 ,2,0,720.,1.2,9.,1.2,0.,1.2,,0.0,,0.0
1986-01-24 18:01:54.300 ,2,0,688.,1.2,7.,1.2,0.,1.2,,0.0,,0.0
1986-01-24 18:01:55.500 ,2,0,560.,1.2,5.,1.2,0.,1.2,,0.0,,0.0
1986-01-24 18:01:56.700 ,2,0,592.,1.2,4.,1.2,0.,1.2,,0.0,,0.0
1986-01-24 18:01:57.900 ,2,0,512.,1.2,12.,1.2,0.,1.2,,0.0,,0.0
1986-01-24 18:01:59.100 ,2,0,544.,1.2,10.,1.2,0.,1.2,,0.0,,0.0
1986-01-24 18:02:00.300 ,6,0,624.,1.2,10.,1.2,0.,1.2,,0.0,,0.0
1986-01-24 18:02:01.500 ,6,0,1152.,1.2,12.,1.2,0.,1.2,,0.0,,0.0
1986-01-24 18:02:02.700 ,6,0,1184.,1.2,12.,1.2,0.,1.2,,0.0,,0.0
1986-01-24 18:02:03.900 ,6,0,1184.,1.2,9.,1.2,0.,1.2,,0.0,,0.0
1986-01-24 18:02:05.100 ,6,0,1184.,1.2,13.,1.2,0.,1.2,,0.0,,0.0
1986-01-24 18:02:06.300 ,6,0,1280.,1.2,20.,1.2,0.,1.2,,0.0,,0.0
1986-01-24 18:02:07.500 ,6,0,1376.,1.2,18.,1.2,0.,1.2,,0.0,,0.0
1986-01-24 18:02:08.700 ,6,0,1376.,1.2,15.,1.2,0.,1.2,,0.0,,0.0
1986-01-24 18:02:09.900 ,6,0,1408.,1.2,15.,1.2,0.,1.2,,0.0,,0.0
1986-01-24 18:02:11.100 ,6,0,1408.,1.2,10.,1.2,0.,1.2,,0.0,,0.0
1986-01-24 18:02:12.300 ,6,0,1312.,1.2,11.,1.2,0.,1.2,,0.0,,0.0
1986-01-24 18:02:13.500 ,6,0,736.,1.2,15.,1.2,0.,1.2,,0.0,,0.0
1986-01-24 18:02:14.700 ,6,0,688.,1.2,7.,1.2,0.,1.2,,0.0,,0.0
1986-01-24 18:02:15.900 ,6,0,736.,1.2,7.,1.2,0.,1.2,,0.0,,0.0
1986-01-24 18:02:17.100 ,6,0,720.,1.2,6.,1.2,0.,1.2,,0.0,,0.0
1986-01-24 18:02:18.300 ,6,0,672.,1.2,4.,1.2,0.,1.2,,0.0,,0.0
1986-01-24 18:02:19.500 ,6,0,528.,1.2,12.,1.2,0.,1.2,,0.0,,0.0
1986-01-24 18:02:20.700 ,6,0,560.,1.2,6.,1.2,0.,1.2,,0.0,,0.0
1986-01-24 18:02:21.900 ,6,0,496.,1.2,7.,1.2,0.,1.2,,0.0,,0.0
1986-01-24 18:02:23.100 ,6,0,576.,1.2,5.,1.2,0.,1.2,,0.0,,0.0
1986-01-24 18:02:24.300 ,6,0,576.,1.2,10.,1.2,0.,1.2,,0.0,,0.0
1986-01-24 18:02:25.500 ,6,0,544.,1.2,4.,1.2,0.,1.2,,0.0,,0.0
1986-01-24 18:02:26.700 ,6,0,592.,1.2,5.,1.2,0.,1.2,,0.0,,0.0
1986-01-24 18:02:27.900 ,6,0,560.,1.2,4.,1.2,0.,1.2,,0.0,,0.0
1986-01-24 18:02:29.100 ,6,0,576.,1.2,10.,1.2,0.,1.2,,0.0,,0.0
1986-01-24 18:02:30.300 ,6,0,560.,1.2,9.,1.2,0.,1.2,,0.0,,0.0
1986-01-24 18:02:31.500 ,6,0,528.,1.2,2.,1.2,0.,1.2,,0.0,,0.0
1986-01-24 18:02:32.700 ,6,0,576.,1.2,11.,1.2,0.,1.2,,0.0,,0.0
1986-01-24 18:02:33.900 ,6,0,560.,1.2,6.,1.2,0.,1.2,,0.0,,0.0
1986-01-24 18:02:35.100 ,6,0,544.,1.2,12.,1.2,0.,1.2,,0.0,,0.0
1986-01-24 18:02:36.300 ,6,0,592.,1.2,9.,1.2,0.,1.2,,0.0,,0.0
1986-01-24 18:02:37.500 ,6,0,544.,1.2,6.,1.2,0.,1.2,,0.0,,0.0
1986-01-24 18:02:38.700 ,6,0,608.,1.2,9.,1.2,0.,1.2,,0.0,,0.0
1986-01-24 18:02:39.900 ,6,0,608.,1.2,6.,1.2,0.,1.2,,0.0,,0.0
1986-01-24 18:02:41.100 ,6,0,560.,1.2,6.,1.2,0.,1.2,,0.0,,0.0
1986-01-24 18:02:42.300 ,6,0,672.,1.2,15.,1.2,0.,1.2,,0.0,,0.0
1986-01-24 18:02:43.500 ,6,0,576.,1.2,9.,1.2,0.,1.2,,0.0,,0.0
1986-01-24 18:02:44.700 ,6,0,608.,1.2,13.,1.2,0.,1.2,,0.0,,0.0
1986-01-24 18:02:45.900 ,6,0,544.,1.2,8.,1.2,0.,1.2,,0.0,,0.0
1986-01-24 18:02:47.100 ,6,0,608.,1.2,8.,1.2,0.,1.2,,0.0,,0.0
1986-01-24 18:02:48.300 ,6,0,576.,1.2,5.,1.2,0.,1.2,,0.0,,0.0
1986-01-24 18:02:49.500 ,6,0,624.,1.2,6.,1.2,1.,1.2,,0.0,,0.0
1986-01-24 18:02:50.700 ,6,0,592.,1.2,11.,1.2,0.,1.2,,0.0,,0.0
1986-01-24 18:02:51.900 ,6,0,672.,1.2,12.,1.2,0.,1.2,,0.0,,0.0
1986-01-24 18:02:53.100 ,6,0,656.,1.2,10.,1.2,0.,1.2,,0.0,,0.0
1986-01-24 18:02:54.300 ,6,0,608.,1.2,12.,1.2,0.,1.2,,0.0,,0.0
1986-01-24 18:02:55.500 ,6,0,624.,1.2,9.,1.2,0.,1.2,,0.0,,0.0
1986-01-24 18:02:56.700 ,6,0,688.,1.2,9.,1.2,0.,1.2,,0.0,,0.0
1986-01-24 18:02:57.900 ,6,0,608.,1.2,6.,1.2,0.,1.2,,0.0,,0.0
1986-01-24 18:02:59.100 ,6,0,640.,1.2,2.,1.2,0.,1.2,,0.0,,0.0
1986-01-24 18:03:00.300 ,6,0,704.,1.2,15.,1.2,0.,1.2,,0.0,,0.0
1986-01-24 18:03:01.500 ,6,0,672.,1.2,10.,1.2,0.,1.2,,0.0,,0.0
1986-01-24 18:03:02.700 ,6,0,656.,1.2,18.,1.2,0.,1.2,,0.0,,0.0
1986-01-24 18:03:03.900 ,6,0,736.,1.2,12.,1.2,0.,1.2,,0.0,,0.0
1986-01-24 18:03:05.100 ,6,0,720.,1.2,12.,1.2,0.,1.2,,0.0,,0.0
1986-01-24 18:03:06.300 ,6,0,736.,1.2,6.,1.2,0.,1.2,,0.0,,0.0
1986-01-24 18:03:07.500 ,6,0,736.,1.2,11.,1.2,0.,1.2,,0.0,,0.0
1986-01-24 18:03:08.700 ,6,0,720.,1.2,13.,1.2,0.,1.2,,0.0,,0.0
1986-01-24 18:03:09.900 ,6,0,736.,1.2,11.,1.2,0.,1.2,,0.0,,0.0
1986-01-24 18:03:11.100 ,6,0,768.,1.2,14.,1.2,0.,1.2,,0.0,,0.0
1986-01-24 18:03:12.300 ,6,0,736.,1.2,10.,1.2,0.,1.2,,0.0,,0.0
1986-01-24 18:03:13.500 ,6,0,752.,1.2,9.,1.2,0.,1.2,,0.0,,0.0
1986-01-24 18:03:14.700 ,6,0,800.,1.2,10.,1.2,0.,1.2,,0.0,,0.0
1986-01-24 18:03:15.900 ,6,0,736.,1.2,11.,1.2,0.,1.2,,0.0,,0.0
1986-01-24 18:03:17.100 ,6,0,848.,1.2,16.,1.2,0.,1.2,,0.0,,0.0
1986-01-24 18:03:18.300 ,6,0,848.,1.2,14.,1.2,0.,1.2,,0.0,,0.0
1986-01-24 18:03:19.500 ,6,0,816.,1.2,11.,1.2,0.,1.2,,0.0,,0.0
1986-01-24 18:03:20.700 ,6,0,880.,1.2,9.,1.2,0.,1.2,,0.0,,0.0
1986-01-24 18:03:21.900 ,6,0,848.,1.2,18.,1.2,0.,1.2,,0.0,,0.0
1986-01-24 18:03:23.100 ,6,0,848.,1.2,14.,1.2,0.,1.2,,0.0,,0.0
1986-01-24 18:03:24.300 ,6,0,832.,1.2,9.,1.2,0.,1.2,,0.0,,0.0
1986-01-24 18:03:25.500 ,6,0,912.,1.2,13.,1.2,0.,1.2,,0.0,,0.0
1986-01-24 18:03:26.700 ,6,0,896.,1.2,9.,1.2,0.,1.2,,0.0,,0.0
1986-01-24 18:03:27.900 ,6,0,928.,1.2,11.,1.2,0.,1.2,,0.0,,0.0
1986-01-24 18:03:29.100 ,6,0,928.,1.2,16.,1.2,0.,1.2,,0.0,,0.0
1986-01-24 18:03:30.300 ,6,0,944.,1.2,11.,1.2,0.,1.2,,0.0,,0.0
1986-01-24 18:03:31.500 ,6,0,928.,1.2,16.,1.2,0.,1.2,,0.0,,0.0
1986-01-24 18:03:32.700 ,6,0,928.,1.2,13.,1.2,0.,1.2,,0.0,,0.0
1986-01-24 18:03:33.900 ,6,0,976.,1.2,18.,1.2,0.,1.2,,0.0,,0.0
1986-01-24 18:03:35.100 ,6,0,1008.,1.2,10.,1.2,0.,1.2,,0.0,,0.0
1986-01-24 18:03:36.300 ,6,0,976.,1.2,19.,1.2,0.,1.2,,0.0,,0.0
1986-01-24 18:03:37.500 ,6,0,1008.,1.2,11.,1.2,0.,1.2,,0.0,,0.0
1986-01-24 18:03:38.700 ,6,0,1024.,1.2,14.,1.2,0.,1.2,,0.0,,0.0
1986-01-24 18:03:39.900 ,6,0,1024.,1.2,17.,1.2,0.,1.2,,0.0,,0.0
1986-01-24 18:03:41.100 ,6,0,1056.,1.2,16.,1.2,0.,1.2,,0.0,,0.0
1986-01-24 18:03:42.300 ,6,0,1024.,1.2,18.,1.2,0.,1.2,,0.0,,0.0
1986-01-24 18:03:43.500 ,6,0,992.,1.2,15.,1.2,0.,1.2,,0.0,,0.0
1986-01-24 18:03:44.700 ,6,0,1024.,1.2,16.,1.2,0.,1.2,,0.0,,0.0
1986-01-24 18:03:45.900 ,6,0,1056.,1.2,21.,1.2,0.,1.2,,0.0,,0.0
1986-01-24 18:03:47.100 ,6,0,1088.,1.2,12.,1.2,0.,1.2,,0.0,,0.0
1986-01-24 18:03:48.300 ,6,0,1088.,1.2,12.,1.2,0.,1.2,,0.0,,0.0
1986-01-24 18:03:49.500 ,6,0,1088.,1.2,17.,1.2,0.,1.2,,0.0,,0.0
1986-01-24 18:03:50.700 ,6,0,1120.,1.2,12.,1.2,0.,1.2,,0.0,,0.0
1986-01-24 18:03:51.900 ,6,0,1056.,1.2,17.,1.2,0.,1.2,,0.0,,0.0
1986-01-24 18:03:53.100 ,6,0,1184.,1.2,16.,1.2,0.,1.2,,0.0,,0.0
1986-01-24 18:03:54.300 ,6,0,1152.,1.2,19.,1.2,0.,1.2,,0.0,,0.0
1986-01-24 18:03:55.500 ,6,0,1152.,1.2,21.,1.2,0.,1.2,,0.0,,0.0
1986-01-24 18:03:56.700 ,6,0,1120.,1.2,15.,1.2,0.,1.2,,0.0,,0.0
1986-01-24 18:03:57.900 ,6,0,1184.,1.2,20.,1.2,0.,1.2,,0.0,,0.0
1986-01-24 18:03:59.100 ,6,0,1152.,1.2,11.,1.2,0.,1.2,,0.0,,0.0
1986-01-24 18:04:00.300 ,6,0,1216.,1.2,15.,1.2,0.,1.2,,0.0,,0.0
1986-01-24 18:04:01.500 ,6,0,1216.,1.2,19.,1.2,0.,1.2,,0.0,,0.0
1986-01-24 18:04:02.700 ,6,0,1280.,1.2,15.,1.2,1.,1.2,,0.0,,0.0
1986-01-24 18:04:03.900 ,6,0,1184.,1.2,17.,1.2,0.,1.2,,0.0,,0.0
1986-01-24 18:04:05.100 ,6,0,1152.,1.2,18.,1.2,0.,1.2,,0.0,,0.0
1986-01-24 18:04:06.300 ,6,0,1312.,1.2,21.,1.2,0.,1.2,,0.0,,0.0
1986-01-24 18:04:07.500 ,6,0,1248.,1.2,19.,1.2,0.,1.2,,0.0,,0.0
1986-01-24 18:04:08.700 ,6,0,1280.,1.2,20.,1.2,0.,1.2,,0.0,,0.0
1986-01-24 18:04:09.900 ,6,0,1344.,1.2,19.,1.2,0.,1.2,,0.0,,0.0
1986-01-24 18:04:11.100 ,6,0,1344.,1.2,21.,1.2,0.,1.2,,0.0,,0.0
1986-01-24 18:04:12.300 ,6,0,1312.,1.2,16.,1.2,1.,1.2,,0.0,,0.0
1986-01-24 18:04:13.500 ,6,0,1344.,1.2,25.,1.2,0.,1.2,,0.0,,0.0
1986-01-24 18:04:14.700 ,6,0,1344.,1.2,7.,1.2,0.,1.2,,0.0,,0.0
1986-01-24 18:04:15.900 ,6,0,1344.,1.2,23.,1.2,0.,1.2,,0.0,,0.0
1986-01-24 18:04:17.100 ,6,0,1376.,1.2,22.,1.2,0.,1.2,,0.0,,0.0
1986-01-24 18:04:18.300 ,6,0,1344.,1.2,22.,1.2,0.,1.2,,0.0,,0.0
1986-01-24 18:04:19.500 ,6,0,1344.,1.2,18.,1.2,0.,1.2,,0.0,,0.0
1986-01-24 18:04:20.700 ,6,0,1344.,1.2,15.,1.2,0.,1.2,,0.0,,0.0
1986-01-24 18:04:21.900 ,6,0,1376.,1.2,14.,1.2,0.,1.2,,0.0,,0.0
1986-01-24 18:04:23.100 ,6,0,1376.,1.2,24.,1.2,0.,1.2,,0.0,,0.0
1986-01-24 18:04:24.300 ,6,0,1408.,1.2,20.,1.2,0.,1.2,,0.0,,0.0
1986-01-24 18:04:25.500 ,6,0,1504.,1.2,18.,1.2,0.,1.2,,0.0,,0.0
1986-01-24 18:04:26.700 ,6,0,1408.,1.2,22.,1.2,0.,1.2,,0.0,,0.0
1986-01-24 18:04:27.900 ,6,0,1472.,1.2,18.,1.2,0.,1.2,,0.0,,0.0
1986-01-24 18:04:29.100 ,6,0,1504.,1.2,23.,1.2,0.,1.2,,0.0,,0.0
1986-01-24 18:04:30.300 ,6,0,1472.,1.2,15.,1.2,0.,1.2,,0.0,,0.0
1986-01-24 18:04:31.500 ,6,0,1440.,1.2,19.,1.2,0.,1.2,,0.0,,0.0
1986-01-24 18:04:32.700 ,6,0,1504.,1.2,13.,1.2,0.,1.2,,0.0,,0.0
1986-01-24 18:04:33.900 ,6,0,1536.,1.2,23.,1.2,0.,1.2,,0.0,,0.0
1986-01-24 18:04:35.100 ,6,0,1504.,1.2,21.,1.2,0.,1.2,,0.0,,0.0
1986-01-24 18:04:36.300 ,6,0,1536.,1.2,20.,1.2,0.,1.2,,0.0,,0.0
1986-01-24 18:04:37.500 ,6,0,1536.,1.2,23.,1.2,0.,1.2,,0.0,,0.0
1986-01-24 18:04:38.700 ,6,0,1536.,1.2,23.,1.2,0.,1.2,,0.0,,0.0
1986-01-24 18:04:39.900 ,6,0,1600.,1.2,30.,1.2,0.,1.2,,0.0,,0.0
1986-01-24 18:04:41.100 ,6,0,1632.,1.2,21.,1.2,0.,1.2,,0.0,,0.0
1986-01-24 18:04:42.300 ,6,0,1504.,1.2,27.,1.2,0.,1.2,,0.0,,0.0
1986-01-24 18:04:43.500 ,6,0,1600.,1.2,19.,1.2,0.,1.2,,0.0,,0.0
1986-01-24 18:04:44.700 ,6,0,1696.,1.2,22.,1.2,1.,1.2,,0.0,,0.0
1986-01-24 18:04:45.900 ,6,0,1696.,1.2,22.,1.2,0.,1.2,,0.0,,0.0
1986-01-24 18:04:47.100 ,6,0,1600.,1.2,28.,1.2,0.,1.2,,0.0,,0.0
1986-01-24 18:04:48.300 ,6,0,1568.,1.2,22.,1.2,0.,1.2,,0.0,,0.0
1986-01-24 18:04:49.500 ,6,0,1664.,1.2,23.,1.2,0.,1.2,,0.0,,0.0
1986-01-24 18:04:50.700 ,6,0,1696.,1.2,28.,1.2,0.,1.2,,0.0,,0.0
1986-01-24 18:04:51.900 ,6,0,1696.,1.2,21.,1.2,0.,1.2,,0.0,,0.0
1986-01-24 18:04:53.100 ,6,0,1728.,1.2,17.,1.2,0.,1.2,,0.0,,0.0
1986-01-24 18:04:54.300 ,6,0,1760.,1.2,27.,1.2,0.,1.2,,0.0,,0.0
1986-01-24 18:04:55.500 ,6,0,1696.,1.2,25.,1.2,0.,1.2,,0.0,,0.0
1986-01-24 18:04:56.700 ,6,0,1728.,1.2,27.,1.2,0.,1.2,,0.0,,0.0
1986-01-24 18:04:57.900 ,6,0,1760.,1.2,30.,1.2,0.,1.2,,0.0,,0.0
1986-01-24 18:04:59.100 ,6,0,1696.,1.2,22.,1.2,0.,1.2,,0.0,,0.0
1986-01-24 18:05:00.300 ,6,0,1792.,1.2,26.,1.2,0.,1.2,,0.0,,0.0
1986-01-24 18:05:01.500 ,6,0,1824.,1.2,18.,1.2,0.,1.2,,0.0,,0.0
1986-01-24 18:05:02.700 ,6,0,1824.,1.2,26.,1.2,0.,1.2,,0.0,,0.0
1986-01-24 18:05:03.900 ,6,0,1792.,1.2,27.,1.2,0.,1.2,,0.0,,0.0
1986-01-24 18:05:05.100 ,6,0,1824.,1.2,24.,1.2,0.,1.2,,0.0,,0.0
1986-01-24 18:05:06.300 ,6,0,1792.,1.2,20.,1.2,0.,1.2,,0.0,,0.0
1986-01-24 18:05:07.500 ,6,0,1888.,1.2,24.,1.2,0.,1.2,,0.0,,0.0
1986-01-24 18:05:08.700 ,6,0,1824.,1.2,27.,1.2,0.,1.2,,0.0,,0.0
1986-01-24 18:05:09.900 ,6,0,1824.,1.2,20.,1.2,1.,1.2,,0.0,,0.0
1986-01-24 18:05:11.100 ,6,0,1888.,1.2,25.,1.2,0.,1.2,,0.0,,0.0
1986-01-24 18:05:12.300 ,6,0,1824.,1.2,36.,1.2,0.,1.2,,0.0,,0.0
1986-01-24 18:05:13.500 ,6,0,1952.,1.2,29.,1.2,0.,1.2,,0.0,,0.0
1986-01-24 18:05:14.700 ,6,0,1824.,1.2,22.,1.2,0.,1.2,,0.0,,0.0
1986-01-24 18:05:15.900 ,6,0,1856.,1.2,23.,1.2,0.,1.2,,0.0,,0.0
1986-01-24 18:05:17.100 ,6,0,1952.,1.2,23.,1.2,0.,1.2,,0.0,,0.0
1986-01-24 18:05:18.300 ,6,0,1952.,1.2,27.,1.2,0.,1.2,,0.0,,0.0
1986-01-24 18:05:19.500 ,6,0,1888.,1.2,35.,1.2,0.,1.2,,0.0,,0.0
1986-01-24 18:05:20.700 ,6,0,1984.,1.2,25.,1.2,0.,1.2,,0.0,,0.0
1986-01-24 18:05:21.900 ,6,0,1920.,1.2,27.,1.2,0.,1.2,,0.0,,0.0
1986-01-24 18:05:23.100 ,6,0,2016.,1.2,32.,1.2,0.,1.2,,0.0,,0.0
1986-01-24 18:05:24.300 ,6,0,1920.,1.2,28.,1.2,0.,1.2,,0.0,,0.0
1986-01-24 18:05:25.500 ,6,0,1952.,1.2,21.,1.2,0.,1.2,,0.0,,0.0
1986-01-24 18:05:26.700 ,6,0,2016.,1.2,33.,1.2,0.,1.2,,0.0,,0.0
1986-01-24 18:05:27.900 ,6,0,2048.,1.2,30.,1.2,0.,1.2,,0.0,,0.0
1986-01-24 18:05:29.100 ,6,0,2016.,1.2,33.,1.2,0.,1.2,,0.0,,0.0
1986-01-24 18:05:30.300 ,6,0,2048.,1.2,25.,1.2,0.,1.2,,0.0,,0.0
1986-01-24 18:05:31.500 ,6,0,2048.,1.2,24.,1.2,0.,1.2,,0.0,,0.0
1986-01-24 18:05:32.700 ,6,0,2016.,1.2,37.,1.2,0.,1.2,,0.0,,0.0
1986-01-24 18:05:33.900 ,6,0,2048.,1.2,28.,1.2,0.,1.2,,0.0,,0.0
1986-01-24 18:05:35.100 ,6,0,2048.,1.2,31.,1.2,0.,1.2,,0.0,,0.0
1986-01-24 18:05:36.300 ,6,0,2048.,1.2,31.,1.2,1.,1.2,,0.0,,0.0
1986-01-24 18:05:37.500 ,6,0,2048.,1.2,24.,1.2,0.,1.2,,0.0,,0.0
1986-01-24 18:05:38.700 ,6,0,2048.,1.2,30.,1.2,0.,1.2,,0.0,,0.0
1986-01-24 18:05:39.900 ,6,0,2112.,1.2,35.,1.2,0.,1.2,,0.0,,0.0
1986-01-24 18:05:41.100 ,6,0,2048.,1.2,31.,1.2,0.,1.2,,0.0,,0.0
1986-01-24 18:05:42.300 ,6,0,2112.,1.2,25.,1.2,0.,1.2,,0.0,,0.0
1986-01-24 18:05:43.500 ,6,0,2048.,1.2,21.,1.2,0.,1.2,,0.0,,0.0
1986-01-24 18:05:44.700 ,6,0,2112.,1.2,44.,1.2,1.,1.2,,0.0,,0.0
1986-01-24 18:05:45.900 ,6,0,2112.,1.2,35.,1.2,1.,1.2,,0.0,,0.0
1986-01-24 18:05:47.100 ,6,0,2112.,1.2,29.,1.2,0.,1.2,,0.0,,0.0
1986-01-24 18:05:48.300 ,6,0,2176.,1.2,30.,1.2,0.,1.2,,0.0,,0.0
1986-01-24 18:05:49.500 ,6,0,2240.,1.2,33.,1.2,0.,1.2,,0.0,,0.0
1986-01-24 18:05:50.700 ,6,0,2112.,1.2,31.,1.2,0.,1.2,,0.0,,0.0
1986-01-24 18:05:51.900 ,6,0,2176.,1.2,37.,1.2,0.,1.2,,0.0,,0.0
1986-01-24 18:05:53.100 ,6,0,2176.,1.2,22.,1.2,0.,1.2,,0.0,,0.0
1986-01-24 18:05:54.300 ,6,0,2176.,1.2,23.,1.2,0.,1.2,,0.0,,0.0
1986-01-24 18:05:55.500 ,6,0,2240.,1.2,34.,1.2,0.,1.2,,0.0,,0.0
1986-01-24 18:05:56.700 ,6,0,2304.,1.2,34.,1.2,0.,1.2,,0.0,,0.0
1986-01-24 18:05:57.900 ,6,0,2240.,1.2,30.,1.2,0.,1.2,,0.0,,0.0
1986-01-24 18:05:59.100 ,6,0,2240.,1.2,24.,1.2,0.,1.2,,0.0,,0.0
1986-01-24 18:06:00.300 ,6,0,2240.,1.2,27.,1.2,0.,1.2,,0.0,,0.0
1986-01-24 18:06:01.500 ,6,0,2240.,1.2,29.,1.2,0.,1.2,,0.0,,0.0
1986-01-24 18:06:02.700 ,6,0,2304.,1.2,36.,1.2,0.,1.2,,0.0,,0.0
1986-01-24 18:06:03.900 ,6,0,2368.,1.2,32.,1.2,0.,1.2,,0.0,,0.0
1986-01-24 18:06:05.100 ,6,0,2240.,1.2,35.,1.2,0.,1.2,,0.0,,0.0
1986-01-24 18:06:06.300 ,6,0,2304.,1.2,39.,1.2,0.,1.2,,0.0,,0.0
1986-01-24 18:06:07.500 ,6,0,2304.,1.2,36.,1.2,0.,1.2,,0.0,,0.0
1986-01-24 18:06:08.700 ,6,0,2240.,1.2,29.,1.2,0.,1.2,,0.0,,0.0
1986-01-24 18:06:09.900 ,6,0,2304.,1.2,25.,1.2,0.,1.2,,0.0,,0.0
1986-01-24 18:06:11.100 ,6,0,2304.,1.2,41.,1.2,0.,1.2,,0.0,,0.0
1986-01-24 18:06:12.300 ,6,0,2368.,1.2,45.,1.2,0.,1.2,,0.0,,0.0
1986-01-24 18:06:13.500 ,6,0,2304.,1.2,31.,1.2,0.,1.2,,0.0,,0.0
1986-01-24 18:06:14.700 ,6,0,2304.,1.2,38.,1.2,0.,1.2,,0.0,,0.0
1986-01-24 18:06:15.900 ,6,0,2304.,1.2,40.,1.2,0.,1.2,,0.0,,0.0
1986-01-24 18:06:17.100 ,6,0,2240.,1.2,29.,1.2,0.,1.2,,0.0,,0.0
1986-01-24 18:06:18.300 ,6,0,2240.,1.2,28.,1.2,0.,1.2,,0.0,,0.0
1986-01-24 18:06:19.500 ,6,0,2304.,1.2,35.,1.2,0.,1.2,,0.0,,0.0
1986-01-24 18:06:20.700 ,6,0,2368.,1.2,34.,1.2,0.,1.2,,0.0,,0.0
1986-01-24 18:06:21.900 ,6,0,2304.,1.2,33.,1.2,0.,1.2,,0.0,,0.0
1986-01-24 18:06:23.100 ,6,0,2368.,1.2,30.,1.2,0.,1.2,,0.0,,0.0
1986-01-24 18:06:24.300 ,6,0,2432.,1.2,35.,1.2,1.,1.2,,0.0,,0.0
1986-01-24 18:06:25.500 ,6,0,2304.,1.2,33.,1.2,1.,1.2,,0.0,,0.0
1986-01-24 18:06:26.700 ,6,0,2432.,1.2,39.,1.2,0.,1.2,,0.0,,0.0
1986-01-24 18:06:27.900 ,6,0,2240.,1.2,30.,1.2,0.,1.2,,0.0,,0.0
1986-01-24 18:06:29.100 ,6,0,2304.,1.2,33.,1.2,0.,1.2,,0.0,,0.0
1986-01-24 18:06:30.300 ,6,0,2304.,1.2,32.,1.2,0.,1.2,,0.0,,0.0
1986-01-24 18:06:31.500 ,6,0,2368.,1.2,37.,1.2,0.,1.2,,0.0,,0.0
1986-01-24 18:06:32.700 ,6,0,2368.,1.2,28.,1.2,0.,1.2,,0.0,,0.0
1986-01-24 18:06:33.900 ,6,0,2368.,1.2,39.,1.2,0.,1.2,,0.0,,0.0
1986-01-24 18:06:35.100 ,6,0,2304.,1.2,39.,1.2,0.,1.2,,0.0,,0.0
1986-01-24 18:06:36.300 ,6,0,2368.,1.2,22.,1.2,0.,1.2,,0.0,,0.0
1986-01-24 18:06:37.500 ,6,0,2368.,1.2,32.,1.2,0.,1.2,,0.0,,0.0
1986-01-24 18:06:38.700 ,6,0,2304.,1.2,34.,1.2,0.,1.2,,0.0,,0.0
1986-01-24 18:06:39.900 ,6,0,2496.,1.2,25.,1.2,0.,1.2,,0.0,,0.0
1986-01-24 18:06:41.100 ,6,0,2368.,1.2,37.,1.2,0.,1.2,,0.0,,0.0
1986-01-24 18:06:42.300 ,6,0,2368.,1.2,34.,1.2,0.,1.2,,0.0,,0.0
1986-01-24 18:06:43.500 ,6,0,2496.,1.2,39.,1.2,0.,1.2,,0.0,,0.0
1986-01-24 18:06:44.700 ,6,0,2432.,1.2,32.,1.2,0.,1.2,,0.0,,0.0
1986-01-24 18:06:45.900 ,6,0,2432.,1.2,32.,1.2,0.,1.2,,0.0,,0.0
1986-01-24 18:06:47.100 ,6,0,2368.,1.2,33.,1.2,0.,1.2,,0.0,,0.0
1986-01-24 18:06:48.300 ,6,0,2432.,1.2,37.,1.2,0.,1.2,,0.0,,0.0
1986-01-24 18:06:49.500 ,6,0,2368.,1.2,40.,1.2,0.,1.2,,0.0,,0.0
1986-01-24 18:06:50.700 ,6,0,2432.,1.2,30.,1.2,0.,1.2,,0.0,,0.0
1986-01-24 18:06:51.900 ,6,0,2432.,1.2,35.,1.2,0.,1.2,,0.0,,0.0
1986-01-24 18:06:53.100 ,6,0,2432.,1.2,47.,1.2,0.,1.2,,0.0,,0.0
1986-01-24 18:06:54.300 ,6,0,2432.,1.2,38.,1.2,0.,1.2,,0.0,,0.0
1986-01-24 18:06:55.500 ,6,0,2432.,1.2,29.,1.2,0.,1.2,,0.0,,0.0
1986-01-24 18:06:56.700 ,6,0,2496.,1.2,43.,1.2,0.,1.2,,0.0,,0.0
1986-01-24 18:06:57.900 ,6,0,2432.,1.2,31.,1.2,0.,1.2,,0.0,,0.0
1986-01-24 18:06:59.100 ,6,0,2432.,1.2,38.,1.2,1.,1.2,,0.0,,0.0
1986-01-24 18:07:00.300 ,6,0,2432.,1.2,39.,1.2,0.,1.2,,0.0,,0.0
1986-01-24 18:07:01.500 ,6,0,2496.,1.2,36.,1.2,1.,1.2,,0.0,,0.0
1986-01-24 18:07:02.700 ,6,0,2496.,1.2,35.,1.2,0.,1.2,,0.0,,0.0
1986-01-24 18:07:03.900 ,6,0,2496.,1.2,32.,1.2,0.,1.2,,0.0,,0.0
1986-01-24 18:07:05.100 ,6,0,2432.,1.2,33.,1.2,0.,1.2,,0.0,,0.0
1986-01-24 18:07:06.300 ,6,0,2496.,1.2,30.,1.2,0.,1.2,,0.0,,0.0
1986-01-24 18:07:07.500 ,6,0,2432.,1.2,40.,1.2,0.,1.2,,0.0,,0.0
1986-01-24 18:07:08.700 ,6,0,2496.,1.2,32.,1.2,0.,1.2,,0.0,,0.0
1986-01-24 18:07:09.900 ,6,0,,0,,0,,0,,0,,0
1986-01-24 18:07:11.100 ,6,0,,0,,0,,0,,0,,0
1986-01-24 18:07:28.500 ,6,0,,0,,0,,0,,0,,0
1986-01-24 18:07:29.700 ,6,0,,0,,0,,0,,0,,0
1986-01-24 18:07:30.900 ,6,0,,0,,0,,0,,0,,0
1986-01-24 18:07:32.100 ,6,0,,0,,0,,0,,0,,0
1986-01-24 18:07:33.300 ,6,0,,0,,0,,0,,0,,0
1986-01-24 18:07:34.500 ,6,0,,0,,0,,0,,0,,0
1986-01-24 18:07:35.700 ,6,0,,0,,0,,0,,0,,0
1986-01-24 18:07:36.900 ,6,0,,0,,0,,0,,0,,0
1986-01-24 18:07:38.100 ,6,0,,0,,0,,0,,0,,0
1986-01-24 18:07:39.300 ,6,0,,0,,0,,0,,0,,0
1986-01-24 18:07:40.500 ,6,0,,0,,0,,0,,0,,0
1986-01-24 18:07:41.700 ,6,0,,0,,0,,0,,0,,0
1986-01-24 18:07:42.900 ,6,0,,0,,0,,0,,0,,0
1986-01-24 18:07:44.100 ,6,0,,0,,0,,0,,0,,0
1986-01-24 18:07:45.300 ,6,0,2496.,1.2,36.,1.2,0.,1.2,,0.0,,0.0
1986-01-24 18:07:46.500 ,6,0,2560.,1.2,39.,1.2,0.,1.2,,0.0,,0.0
1986-01-24 18:07:47.700 ,6,0,2560.,1.2,20.,1.2,0.,1.2,,0.0,,0.0
1986-01-24 18:07:48.900 ,6,0,2496.,1.2,35.,1.2,0.,1.2,,0.0,,0.0
1986-01-24 18:07:50.100 ,6,0,2560.,1.2,36.,1.2,0.,1.2,,0.0,,0.0
1986-01-24 18:07:51.300 ,6,0,2560.,1.2,34.,1.2,0.,1.2,,0.0,,0.0
1986-01-24 18:07:36.300 ,6,0,2560.,1.2,38.,1.2,0.,1.2,,0.0,,0.0
1986-01-24 18:07:37.500 ,6,0,2688.,1.2,28.,1.2,0.,1.2,,0.0,,0.0
1986-01-24 18:07:38.700 ,6,0,2496.,1.2,37.,1.2,0.,1.2,,0.0,,0.0
1986-01-24 18:07:39.900 ,6,0,2624.,1.2,44.,1.2,0.,1.2,,0.0,,0.0
1986-01-24 18:07:41.100 ,6,0,2560.,1.2,35.,1.2,0.,1.2,,0.0,,0.0
1986-01-24 18:07:42.300 ,6,0,2560.,1.2,48.,1.2,0.,1.2,,0.0,,0.0
1986-01-24 18:07:43.500 ,6,0,2624.,1.2,46.,1.2,0.,1.2,,0.0,,0.0
1986-01-24 18:07:44.700 ,6,0,2624.,1.2,30.,1.2,0.,1.2,,0.0,,0.0
1986-01-24 18:07:45.900 ,6,0,2560.,1.2,41.,1.2,0.,1.2,,0.0,,0.0
1986-01-24 18:07:47.100 ,6,0,2688.,1.2,48.,1.2,0.,1.2,,0.0,,0.0
1986-01-24 18:07:48.300 ,6,0,2688.,1.2,41.,1.2,1.,1.2,,0.0,,0.0
1986-01-24 18:07:49.500 ,6,0,2624.,1.2,36.,1.2,0.,1.2,,0.0,,0.0
1986-01-24 18:07:50.700 ,6,0,2624.,1.2,40.,1.2,0.,1.2,,0.0,,0.0
1986-01-24 18:07:51.900 ,6,0,2752.,1.2,55.,1.2,0.,1.2,,0.0,,0.0
1986-01-24 18:07:53.100 ,6,0,2688.,1.2,33.,1.2,0.,1.2,,0.0,,0.0
1986-01-24 18:07:54.300 ,6,0,2752.,1.2,38.,1.2,0.,1.2,,0.0,,0.0